This is the latest recevied weather packets stored in our database for station/object K6CED. If no packets are shown the sender has not sent any weather packets the latest 10 day(s).
| Time | Temp. | Humidity | Pressure | Rain* | Wind** | Luminosity | Snow |
|---|---|---|---|---|---|---|---|
| 1787520791 | 40° C | 27% | 1014.4 hPa | 0 mm | - | 771 W/m² | - |
| 1787520487 | 40.56° C | 26% | 1014.5 hPa | 0 mm | - | 787 W/m² | - |
| 1787520183 | 40° C | 26% | 1014.5 hPa | 0 mm | - | 785 W/m² | - |
| 1787519877 | 38.89° C | 27% | 1014.8 hPa | 0 mm | - | 835 W/m² | - |
| 1787519568 | 39.44° C | 27% | 1014.7 hPa | 0 mm | - | 902 W/m² | - |
| 1787519267 | 40° C | 27% | 1014.6 hPa | 0 mm | - | 915 W/m² | - |
| 1787518963 | 38.89° C | 27% | 1014.7 hPa | 0 mm | - | 814 W/m² | - |
| 1787518658 | 39.44° C | 26% | 1014.7 hPa | 0 mm | - | 759 W/m² | - |
| 1787518353 | 38.89° C | 27% | 1014.8 hPa | 0 mm | - | 736 W/m² | - |
| 1787518049 | 38.89° C | 27% | 1014.8 hPa | 0 mm | - | 735 W/m² | - |
| 1787517744 | 39.44° C | 28% | 1015 hPa | 0 mm | - | 736 W/m² | - |
| 1787517440 | 38.89° C | 28% | 1015 hPa | 0 mm | - | 740 W/m² | - |
| 1787517137 | 38.89° C | 28% | 1014.9 hPa | 0 mm | - | 747 W/m² | - |
| 1787516835 | 38.89° C | 27% | 1014.8 hPa | 0 mm | - | 749 W/m² | - |
| 1787516531 | 38.89° C | 27% | 1015 hPa | 0 mm | - | 764 W/m² | - |
| 1787516231 | 38.89° C | 27% | 1015 hPa | 0 mm | - | 786 W/m² | - |
| 1787515925 | 38.33° C | 27% | 1014.8 hPa | 0 mm | - | 656 W/m² | - |
| 1787515622 | 39.44° C | 26% | 1014.8 hPa | 0 mm | - | 797 W/m² | - |
| 1787515317 | 39.44° C | 27% | 1015 hPa | 0 mm | - | 813 W/m² | - |
| 1787515012 | 38.89° C | 28% | 1015.3 hPa | 0 mm | - | 832 W/m² | - |
| 1787514709 | 37.78° C | 29% | 1015 hPa | 0 mm | - | 844 W/m² | - |
| 1787514409 | 38.89° C | 27% | 1015.1 hPa | 0 mm | - | 845 W/m² | - |
| 1787514109 | 38.33° C | 28% | 1015.2 hPa | 0 mm | - | 846 W/m² | - |
| 1787513804 | 37.78° C | 28% | 1015.2 hPa | 0 mm | - | 847 W/m² | - |
| 1787513500 | 38.33° C | 28% | 1015.2 hPa | 0 mm | - | 849 W/m² | - |
* Rain latest hour (hover to see other rain measurements)
** Current wind speed in m/s (hover to see current wind gust speed)